Powrót do katalogu

STARLINK-31684

AktywnyŁącznośćVLEO
NORAD 59492·PAYLOAD·🇺🇸 United States

Wystrzelony Apr 13, 2024 z Cape Canaveral Space Force Station

Loading…

Następne Przeloty (najbliższe 24 godziny)

TLE

ŚwieżeSource: CelesTrak SupGP

Epoka: Sep 14, 2026, 22:37 UTC

1 59492C 24071J   26257.94284722 -.00019338  00000+0 -70039-3 0  2577
2 59492  43.0022 358.5583 0001556 268.9447  10.1071 15.27589076    17

Śledź STARLINK-31684 w czasie rzeczywistym z AllMySat

Download on the App Store